Torna al catalogo

SL-16 DEB

AttivoLEO
NORAD 22600·DEBRIS·🇷🇺 Russia

Lanciato Mar 26, 1993 da Baikonur Cosmodrome

Loading…

Prossimi Passaggi (prossime 24 ore)

TLE

AggiornatoSource: Space-Track

Epoca: Sep 14, 2026, 14:20 UTC

1 22600U 93016J   26257.59745547  .00000011  00000-0  45806-4 0  9996
2 22600  70.9168 348.2865 0156733  84.7217 338.9372 13.82516460688017

Traccia SL-16 DEB in tempo reale con AllMySat

Download on the App Store